Wetterdaten: Samstag, 11.01.2020
Datum Zeit Temp. I. Temp. A. Boden 5 cm Feuchte A. Sonne Luftdruck Regen Wind Sonnenschein Zeit Regen
11.01.2020 00:01 22,4 C 7,0 C 5,4 C 75 % 1 % 1028 hPa 0,0 l/m 12,3 km/h (3 Bft) 0 min 0 min
11.01.2020 00:04 22,4 C 7,0 C 5,4 C 75 % 1 % 1028 hPa 0,0 l/m 11,6 km/h (2 Bft) 0 min 0 min
11.01.2020 00:07 22,4 C 7,0 C 5,5 C 75 % 1 % 1028 hPa 0,0 l/m 27,6 km/h (4 Bft) 0 min 0 min
11.01.2020 00:10 22,4 C 7,0 C 5,6 C 75 % 1 % 1028 hPa 0,0 l/m 17,1 km/h (3 Bft) 0 min 0 min
11.01.2020 00:13 22,4 C 7,2 C 5,5 C 75 % 1 % 1028 hPa 0,0 l/m 21,6 km/h (4 Bft) 0 min 0 min
11.01.2020 00:16 22,4 C 7,2 C 5,7 C 75 % 1 % 1028 hPa 0,0 l/m 21,6 km/h (4 Bft) 0 min 0 min
11.01.2020 00:19 22,4 C 7,2 C 5,7 C 75 % 1 % 1028 hPa 0,0 l/m 27,1 km/h (4 Bft) 0 min 0 min
11.01.2020 00:22 22,4 C 7,3 C 5,8 C 74 % 1 % 1028 hPa 0,0 l/m 22,5 km/h (4 Bft) 0 min 0 min
11.01.2020 00:25 22,4 C 7,3 C 5,7 C 74 % 1 % 1028 hPa 0,0 l/m 22,5 km/h (4 Bft) 0 min 0 min
11.01.2020 00:28 22,4 C 7,3 C 5,8 C 75 % 1 % 1028 hPa 0,0 l/m 17,6 km/h (3 Bft) 0 min 0 min
11.01.2020 00:31 22,4 C 7,3 C 5,8 C 75 % 1 % 1028 hPa 0,0 l/m 17,0 km/h (3 Bft) 0 min 0 min
11.01.2020 00:34 22,4 C 7,2 C 5,8 C 75 % 1 % 1028 hPa 0,0 l/m 16,8 km/h (3 Bft) 0 min 0 min
11.01.2020 00:37 22,4 C 7,2 C 5,7 C 75 % 1 % 1028 hPa 0,0 l/m 16,6 km/h (3 Bft) 0 min 0 min
11.01.2020 00:40 22,4 C 7,2 C 5,7 C 75 % 1 % 1028 hPa 0,0 l/m 20,0 km/h (4 Bft) 0 min 0 min
11.01.2020 00:43 22,4 C 7,2 C 5,6 C 75 % 1 % 1028 hPa 0,0 l/m 13,6 km/h (3 Bft) 0 min 0 min
11.01.2020 00:46 22,4 C 7,2 C 5,8 C 74 % 1 % 1028 hPa 0,0 l/m 13,6 km/h (3 Bft) 0 min 0 min
11.01.2020 00:58 22,4 C 7,2 C 5,7 C 74 % 1 % 1028 hPa 0,0 l/m 18,4 km/h (3 Bft) 0 min 0 min
11.01.2020 01:01 22,4 C 7,1 C 5,6 C 74 % 1 % 1028 hPa 0,0 l/m 11,4 km/h (2 Bft) 0 min 0 min
11.01.2020 01:04 22,4 C 7,0 C 5,4 C 74 % 1 % 1028 hPa 0,0 l/m 17,1 km/h (3 Bft) 0 min 0 min
11.01.2020 01:07 22,5 C 7,0 C 5,5 C 74 % 1 % 1028 hPa 0,0 l/m 20,6 km/h (4 Bft) 0 min 0 min
11.01.2020 01:10 22,4 C 6,8 C 5,3 C 74 % 1 % 1028 hPa 0,0 l/m 15,3 km/h (3 Bft) 0 min 0 min
11.01.2020 01:13 22,4 C 6,8 C 5,3 C 74 % 1 % 1028 hPa 0,0 l/m 15,3 km/h (3 Bft) 0 min 0 min
11.01.2020 01:16 22,4 C 6,8 C 5,4 C 74 % 1 % 1028 hPa 0,0 l/m 11,3 km/h (2 Bft) 0 min 0 min
11.01.2020 01:19 22,4 C 6,8 C 5,3 C 73 % 1 % 1028 hPa 0,0 l/m 14,2 km/h (3 Bft) 0 min 0 min
11.01.2020 01:22 22,4 C 6,8 C 5,3 C 73 % 1 % 1029 hPa 0,0 l/m 11,6 km/h (2 Bft) 0 min 0 min
11.01.2020 01:25 22,3 C 6,8 C 5,3 C 73 % 1 % 1028 hPa 0,0 l/m 13,5 km/h (3 Bft) 0 min 0 min
11.01.2020 01:28 22,3 C 6,7 C 5,2 C 73 % 1 % 1029 hPa 0,0 l/m 9,6 km/h (2 Bft) 0 min 0 min
11.01.2020 01:31 22,3 C 6,6 C 5,3 C 73 % 1 % 1029 hPa 0,0 l/m 11,5 km/h (2 Bft) 0 min 0 min
11.01.2020 01:34 22,3 C 6,6 C 5,3 C 73 % 1 % 1029 hPa 0,0 l/m 14,5 km/h (3 Bft) 0 min 0 min
11.01.2020 01:37 22,3 C 6,6 C 5,2 C 73 % 1 % 1029 hPa 0,0 l/m 10,0 km/h (2 Bft) 0 min 0 min
11.01.2020 01:40 22,3 C 6,5 C 5,2 C 73 % 1 % 1029 hPa 0,0 l/m 10,0 km/h (2 Bft) 0 min 0 min
11.01.2020 01:43 22,3 C 6,5 C 5,2 C 73 % 1 % 1029 hPa 0,0 l/m 15,3 km/h (3 Bft) 0 min 0 min
11.01.2020 01:46 22,2 C 6,5 C 5,2 C 73 % 1 % 1029 hPa 0,0 l/m 15,3 km/h (3 Bft) 0 min 0 min
11.01.2020 01:49 22,2 C 6,5 C 5,2 C 73 % 1 % 1029 hPa 0,0 l/m 12,0 km/h (2 Bft) 0 min 0 min
11.01.2020 01:52 22,2 C 6,4 C 5,2 C 73 % 1 % 1029 hPa 0,0 l/m 13,6 km/h (3 Bft) 0 min 0 min
11.01.2020 01:55 22,2 C 6,4 C 5,3 C 74 % 1 % 1029 hPa 0,0 l/m 11,2 km/h (2 Bft) 0 min 0 min
11.01.2020 01:58 22,1 C 6,4 C 5,2 C 74 % 1 % 1029 hPa 0,0 l/m 14,5 km/h (3 Bft) 0 min 0 min
11.01.2020 02:01 22,1 C 6,4 C 5,2 C 74 % 1 % 1029 hPa 0,0 l/m 14,5 km/h (3 Bft) 0 min 0 min
11.01.2020 02:04 22,0 C 6,4 C 5,1 C 74 % 1 % 1029 hPa 0,0 l/m 9,6 km/h (2 Bft) 0 min 0 min
11.01.2020 02:07 22,0 C 6,3 C 5,1 C 75 % 1 % 1029 hPa 0,0 l/m 12,6 km/h (3 Bft) 0 min 0 min
11.01.2020 02:10 22,0 C 6,4 C 5,1 C 75 % 1 % 1029 hPa 0,0 l/m 13,4 km/h (3 Bft) 0 min 0 min
11.01.2020 02:13 22,0 C 6,3 C 5,1 C 75 % 1 % 1029 hPa 0,0 l/m 9,9 km/h (2 Bft) 0 min 0 min
11.01.2020 02:16 22,0 C 6,3 C 5,1 C 75 % 1 % 1029 hPa 0,0 l/m 10,2 km/h (2 Bft) 0 min 0 min
11.01.2020 02:19 21,9 C 6,3 C 5,1 C 75 % 1 % 1030 hPa 0,0 l/m 18,2 km/h (3 Bft) 0 min 0 min
11.01.2020 02:22 21,9 C 6,3 C 5,1 C 75 % 1 % 1030 hPa 0,0 l/m 9,8 km/h (2 Bft) 0 min 0 min
11.01.2020 02:25 21,9 C 6,3 C 5,1 C 75 % 1 % 1030 hPa 0,0 l/m 9,6 km/h (2 Bft) 0 min 0 min
11.01.2020 02:28 21,9 C 6,2 C 5,1 C 75 % 1 % 1030 hPa 0,0 l/m 9,6 km/h (2 Bft) 0 min 0 min
11.01.2020 02:31 21,8 C 6,2 C 5,1 C 75 % 1 % 1030 hPa 0,0 l/m 7,8 km/h (2 Bft) 0 min 0 min
11.01.2020 02:34 21,8 C 6,2 C 5,1 C 75 % 1 % 1030 hPa 0,0 l/m 8,1 km/h (2 Bft) 0 min 0 min
11.01.2020 02:37 21,8 C 6,2 C 5,0 C 75 % 1 % 1030 hPa 0,0 l/m 6,0 km/h (2 Bft) 0 min 0 min
11.01.2020 02:40 21,8 C 6,1 C 5,0 C 75 % 1 % 1030 hPa 0,0 l/m 10,0 km/h (2 Bft) 0 min 0 min
11.01.2020 02:43 21,9 C 6,1 C 5,0 C 75 % 1 % 1030 hPa 0,0 l/m 8,8 km/h (2 Bft) 0 min 0 min
11.01.2020 02:46 22,0 C 6,1 C 5,0 C 75 % 1 % 1030 hPa 0,0 l/m 13,0 km/h (3 Bft) 0 min 0 min
11.01.2020 02:50 22,0 C 6,1 C 5,1 C 75 % 1 % 1030 hPa 0,0 l/m 12,6 km/h (3 Bft) 0 min 0 min
11.01.2020 02:53 22,0 C 6,2 C 5,1 C 75 % 1 % 1030 hPa 0,0 l/m 12,9 km/h (3 Bft) 0 min 0 min
11.01.2020 02:56 22,0 C 6,2 C 5,1 C 75 % 1 % 1030 hPa 0,0 l/m 13,6 km/h (3 Bft) 0 min 0 min
11.01.2020 02:59 22,0 C 6,2 C 5,1 C 75 % 1 % 1030 hPa 0,0 l/m 10,3 km/h (2 Bft) 0 min 0 min
11.01.2020 03:02 22,0 C 6,2 C 5,1 C 75 % 1 % 1030 hPa 0,0 l/m 10,8 km/h (2 Bft) 0 min 0 min
11.01.2020 03:05 22,0 C 6,2 C 5,1 C 75 % 1 % 1030 hPa 0,0 l/m 10,8 km/h (2 Bft) 0 min 0 min
11.01.2020 03:08 22,0 C 6,2 C 5,1 C 75 % 1 % 1030 hPa 0,0 l/m 10,8 km/h (2 Bft) 0 min 0 min
11.01.2020 03:11 22,0 C 6,2 C 5,1 C 75 % 1 % 1030 hPa 0,0 l/m 10,8 km/h (2 Bft) 0 min 0 min
11.01.2020 03:14 22,0 C 6,2 C 5,1 C 75 % 1 % 1030 hPa 0,0 l/m 10,8 km/h (2 Bft) 0 min 0 min
11.01.2020 03:17 22,0 C 6,2 C 5,1 C 75 % 1 % 1030 hPa 0,0 l/m 7,8 km/h (2 Bft) 0 min 0 min
11.01.2020 03:20 22,0 C 6,2 C 5,1 C 75 % 1 % 1030 hPa 0,0 l/m 7,3 km/h (2 Bft) 0 min 0 min
11.01.2020 03:23 22,0 C 6,2 C 5,1 C 75 % 1 % 1030 hPa 0,0 l/m 11,8 km/h (2 Bft) 0 min 0 min
11.01.2020 03:26 22,0 C 6,2 C 5,1 C 75 % 1 % 1030 hPa 0,0 l/m 10,1 km/h (2 Bft) 0 min 0 min
11.01.2020 03:29 22,0 C 6,2 C 5,1 C 75 % 1 % 1030 hPa 0,0 l/m 12,0 km/h (2 Bft) 0 min 0 min
11.01.2020 03:32 22,0 C 6,2 C 5,0 C 75 % 1 % 1030 hPa 0,0 l/m 12,0 km/h (2 Bft) 0 min 0 min
11.01.2020 03:35 22,0 C 6,2 C 5,1 C 75 % 1 % 1030 hPa 0,0 l/m 9,2 km/h (2 Bft) 0 min 0 min
11.01.2020 03:38 22,0 C 6,2 C 5,0 C 75 % 1 % 1030 hPa 0,0 l/m 5,0 km/h (1 Bft) 0 min 0 min
11.01.2020 03:41 22,0 C 6,2 C 4,9 C 75 % 1 % 1030 hPa 0,0 l/m 5,0 km/h (1 Bft) 0 min 0 min
11.01.2020 03:44 22,0 C 6,2 C 4,8 C 75 % 1 % 1030 hPa 0,0 l/m 0,1 km/h (0 Bft) 0 min 0 min
11.01.2020 03:47 22,2 C 6,2 C 4,8 C 75 % 1 % 1030 hPa 0,0 l/m 4,8 km/h (1 Bft) 0 min 0 min
11.01.2020 03:50 22,2 C 6,2 C 4,8 C 75 % 1 % 1030 hPa 0,0 l/m 5,6 km/h (1 Bft) 0 min 0 min
11.01.2020 03:53 22,2 C 5,6 C 4,7 C 76 % 1 % 1030 hPa 0,0 l/m 5,3 km/h (1 Bft) 0 min 0 min
11.01.2020 03:56 22,2 C 5,6 C 4,7 C 77 % 1 % 1030 hPa 0,0 l/m 12,1 km/h (2 Bft) 0 min 0 min
11.01.2020 03:59 22,2 C 5,6 C 4,7 C 77 % 1 % 1030 hPa 0,0 l/m 13,2 km/h (3 Bft) 0 min 0 min
11.01.2020 04:02 22,2 C 5,6 C 4,7 C 77 % 1 % 1030 hPa 0,0 l/m 9,6 km/h (2 Bft) 0 min 0 min
11.01.2020 04:05 22,2 C 5,6 C 4,7 C 77 % 1 % 1030 hPa 0,0 l/m 11,3 km/h (2 Bft) 0 min 0 min
11.01.2020 04:08 22,2 C 5,5 C 4,6 C 76 % 1 % 1030 hPa 0,0 l/m 5,2 km/h (1 Bft) 0 min 0 min
11.01.2020 04:11 22,2 C 5,4 C 4,5 C 76 % 1 % 1030 hPa 0,0 l/m 4,8 km/h (1 Bft) 0 min 0 min
11.01.2020 04:14 22,2 C 5,2 C 4,5 C 76 % 1 % 1030 hPa 0,0 l/m 4,8 km/h (1 Bft) 0 min 0 min
11.01.2020 04:17 22,2 C 5,2 C 4,4 C 77 % 1 % 1030 hPa 0,0 l/m 3,3 km/h (1 Bft) 0 min 0 min
11.01.2020 04:20 22,2 C 4,9 C 4,4 C 77 % 1 % 1031 hPa 0,0 l/m 9,0 km/h (2 Bft) 0 min 0 min
11.01.2020 04:23 22,2 C 5,1 C 4,5 C 77 % 1 % 1031 hPa 0,0 l/m 7,8 km/h (2 Bft) 0 min 0 min
11.01.2020 04:26 22,2 C 5,1 C 4,5 C 77 % 1 % 1031 hPa 0,0 l/m 9,2 km/h (2 Bft) 0 min 0 min
11.01.2020 04:29 22,2 C 5,1 C 4,5 C 77 % 1 % 1031 hPa 0,0 l/m 10,6 km/h (2 Bft) 0 min 0 min
11.01.2020 04:32 22,2 C 5,3 C 4,5 C 77 % 1 % 1031 hPa 0,0 l/m 9,4 km/h (2 Bft) 0 min 0 min
11.01.2020 04:35 22,2 C 5,3 C 4,6 C 77 % 1 % 1031 hPa 0,0 l/m 11,3 km/h (2 Bft) 0 min 0 min
11.01.2020 04:38 22,2 C 5,4 C 4,6 C 77 % 1 % 1031 hPa 0,0 l/m 6,8 km/h (2 Bft) 0 min 0 min
11.01.2020 04:41 22,2 C 5,4 C 4,6 C 76 % 1 % 1031 hPa 0,0 l/m 8,3 km/h (2 Bft) 0 min 0 min
11.01.2020 04:44 22,2 C 5,4 C 4,6 C 76 % 1 % 1031 hPa 0,0 l/m 15,0 km/h (3 Bft) 0 min 0 min
11.01.2020 04:47 22,2 C 5,5 C 4,6 C 76 % 1 % 1031 hPa 0,0 l/m 12,4 km/h (3 Bft) 0 min 0 min
11.01.2020 04:50 22,2 C 5,5 C 4,7 C 76 % 1 % 1031 hPa 0,0 l/m 12,4 km/h (3 Bft) 0 min 0 min
11.01.2020 04:53 22,2 C 5,5 C 4,6 C 76 % 1 % 1031 hPa 0,0 l/m 14,8 km/h (3 Bft) 0 min 0 min
11.01.2020 04:56 22,2 C 5,5 C 4,6 C 75 % 1 % 1031 hPa 0,0 l/m 14,9 km/h (3 Bft) 0 min 0 min
11.01.2020 04:59 22,2 C 5,4 C 4,5 C 75 % 1 % 1031 hPa 0,0 l/m 14,9 km/h (3 Bft) 0 min 0 min
11.01.2020 05:02 22,2 C 5,2 C 4,5 C 75 % 1 % 1031 hPa 0,0 l/m 3,5 km/h (1 Bft) 0 min 0 min
11.01.2020 05:05 22,2 C 5,2 C 4,4 C 75 % 1 % 1031 hPa 0,0 l/m 9,0 km/h (2 Bft) 0 min 0 min
11.01.2020 05:08 22,2 C 5,2 C 4,5 C 76 % 1 % 1031 hPa 0,0 l/m 7,0 km/h (2 Bft) 0 min 0 min
11.01.2020 05:11 22,2 C 5,2 C 4,5 C 76 % 1 % 1031 hPa 0,0 l/m 7,1 km/h (2 Bft) 0 min 0 min
11.01.2020 05:14 22,2 C 5,2 C 4,5 C 76 % 1 % 1031 hPa 0,0 l/m 3,6 km/h (1 Bft) 0 min 0 min
11.01.2020 05:17 22,2 C 5,2 C 4,5 C 76 % 1 % 1031 hPa 0,0 l/m 4,2 km/h (1 Bft) 0 min 0 min
11.01.2020 05:20 22,2 C 5,2 C 4,4 C 76 % 1 % 1031 hPa 0,0 l/m 6,1 km/h (2 Bft) 0 min 0 min
11.01.2020 05:23 22,2 C 5,1 C 4,5 C 76 % 1 % 1031 hPa 0,0 l/m 6,1 km/h (2 Bft) 0 min 0 min
11.01.2020 05:26 22,2 C 5,1 C 4,4 C 76 % 1 % 1031 hPa 0,0 l/m 3,8 km/h (1 Bft) 0 min 0 min
11.01.2020 05:29 22,2 C 5,1 C 4,4 C 76 % 1 % 1031 hPa 0,0 l/m 9,4 km/h (2 Bft) 0 min 0 min
11.01.2020 05:32 22,2 C 5,1 C 4,4 C 76 % 1 % 1031 hPa 0,0 l/m 4,6 km/h (1 Bft) 0 min 0 min
11.01.2020 05:35 22,2 C 4,9 C 4,4 C 76 % 1 % 1031 hPa 0,0 l/m 5,1 km/h (1 Bft) 0 min 0 min
11.01.2020 05:38 22,2 C 4,9 C 4,4 C 77 % 1 % 1031 hPa 0,0 l/m 3,5 km/h (1 Bft) 0 min 0 min
11.01.2020 05:41 22,2 C 5,1 C 4,4 C 77 % 1 % 1031 hPa 0,0 l/m 3,5 km/h (1 Bft) 0 min 0 min
11.01.2020 05:44 22,2 C 5,1 C 4,4 C 77 % 1 % 1031 hPa 0,0 l/m 3,5 km/h (1 Bft) 0 min 0 min
11.01.2020 05:47 22,2 C 5,1 C 4,5 C 77 % 1 % 1031 hPa 0,0 l/m 13,7 km/h (3 Bft) 0 min 0 min
11.01.2020 05:50 22,2 C 5,2 C 4,5 C 77 % 1 % 1031 hPa 0,0 l/m 19,6 km/h (3 Bft) 0 min 0 min
11.01.2020 05:53 22,2 C 5,2 C 4,5 C 77 % 1 % 1031 hPa 0,0 l/m 13,1 km/h (3 Bft) 0 min 0 min
11.01.2020 05:56 22,2 C 5,2 C 4,5 C 77 % 1 % 1031 hPa 0,0 l/m 12,0 km/h (2 Bft) 0 min 0 min
11.01.2020 05:59 22,2 C 5,1 C 4,4 C 77 % 1 % 1031 hPa 0,0 l/m 8,3 km/h (2 Bft) 0 min 0 min
11.01.2020 06:02 22,2 C 5,1 C 4,4 C 77 % 1 % 1031 hPa 0,0 l/m 8,4 km/h (2 Bft) 0 min 0 min
11.01.2020 06:05 22,2 C 5,1 C 4,4 C 77 % 1 % 1031 hPa 0,0 l/m 8,7 km/h (2 Bft) 0 min 0 min
11.01.2020 06:08 22,2 C 5,2 C 4,4 C 77 % 1 % 1031 hPa 0,0 l/m 12,0 km/h (2 Bft) 0 min 0 min
11.01.2020 06:11 22,2 C 5,2 C 4,4 C 76 % 1 % 1031 hPa 0,0 l/m 9,9 km/h (2 Bft) 0 min 0 min
11.01.2020 06:14 22,2 C 5,1 C 4,4 C 76 % 1 % 1031 hPa 0,0 l/m 10,2 km/h (2 Bft) 0 min 0 min
11.01.2020 06:17 22,2 C 5,1 C 4,4 C 77 % 1 % 1031 hPa 0,0 l/m 4,1 km/h (1 Bft) 0 min 0 min
11.01.2020 06:20 22,2 C 5,1 C 4,4 C 77 % 1 % 1031 hPa 0,0 l/m 6,1 km/h (2 Bft) 0 min 0 min
11.01.2020 06:23 22,2 C 5,1 C 4,4 C 77 % 1 % 1031 hPa 0,0 l/m 11,3 km/h (2 Bft) 0 min 0 min
11.01.2020 06:26 22,2 C 5,1 C 4,4 C 77 % 1 % 1031 hPa 0,0 l/m 10,4 km/h (2 Bft) 0 min 0 min
11.01.2020 06:29 22,2 C 5,1 C 4,3 C 77 % 1 % 1031 hPa 0,0 l/m 10,6 km/h (2 Bft) 0 min 0 min
11.01.2020 06:32 22,2 C 5,1 C 4,3 C 77 % 1 % 1031 hPa 0,0 l/m 10,2 km/h (2 Bft) 0 min 0 min
11.01.2020 06:35 22,2 C 5,1 C 4,4 C 77 % 1 % 1031 hPa 0,0 l/m 13,0 km/h (3 Bft) 0 min 0 min
11.01.2020 06:38 22,2 C 4,9 C 4,3 C 76 % 1 % 1031 hPa 0,0 l/m 10,3 km/h (2 Bft) 0 min 0 min
11.01.2020 06:41 22,2 C 4,8 C 4,3 C 76 % 1 % 1032 hPa 0,0 l/m 7,8 km/h (2 Bft) 0 min 0 min
11.01.2020 06:44 22,2 C 4,8 C 4,3 C 76 % 1 % 1032 hPa 0,0 l/m 7,7 km/h (2 Bft) 0 min 0 min
11.01.2020 06:47 22,2 C 4,8 C 4,3 C 76 % 1 % 1032 hPa 0,0 l/m 14,7 km/h (3 Bft) 0 min 0 min
11.01.2020 06:50 22,2 C 4,8 C 4,3 C 76 % 1 % 1032 hPa 0,0 l/m 14,7 km/h (3 Bft) 0 min 0 min
11.01.2020 06:53 22,2 C 4,7 C 4,3 C 76 % 1 % 1032 hPa 0,0 l/m 12,0 km/h (2 Bft) 0 min 0 min
11.01.2020 06:56 22,2 C 4,8 C 4,3 C 76 % 1 % 1032 hPa 0,0 l/m 5,6 km/h (1 Bft) 0 min 0 min
11.01.2020 06:59 22,2 C 4,8 C 4,3 C 76 % 1 % 1032 hPa 0,0 l/m 8,0 km/h (2 Bft) 0 min 0 min
11.01.2020 07:02 22,2 C 4,8 C 4,2 C 76 % 1 % 1032 hPa 0,0 l/m 9,1 km/h (2 Bft) 0 min 0 min
11.01.2020 07:05 22,2 C 4,8 C 4,2 C 76 % 1 % 1032 hPa 0,0 l/m 10,4 km/h (2 Bft) 0 min 0 min
11.01.2020 07:08 22,2 C 4,7 C 4,3 C 76 % 1 % 1032 hPa 0,0 l/m 11,3 km/h (2 Bft) 0 min 0 min
11.01.2020 07:11 22,2 C 4,7 C 4,3 C 76 % 1 % 1032 hPa 0,0 l/m 15,5 km/h (3 Bft) 0 min 0 min
11.01.2020 07:14 22,2 C 4,7 C 4,2 C 76 % 1 % 1032 hPa 0,0 l/m 19,9 km/h (4 Bft) 0 min 0 min
11.01.2020 07:17 22,2 C 4,7 C 4,2 C 76 % 1 % 1032 hPa 0,0 l/m 19,9 km/h (4 Bft) 0 min 0 min
11.01.2020 07:20 22,3 C 4,8 C 4,3 C 75 % 1 % 1032 hPa 0,0 l/m 17,7 km/h (3 Bft) 0 min 0 min
11.01.2020 07:23 22,3 C 4,7 C 4,3 C 75 % 1 % 1032 hPa 0,0 l/m 25,0 km/h (4 Bft) 0 min 0 min
11.01.2020 07:26 22,3 C 4,8 C 4,3 C 75 % 1 % 1032 hPa 0,0 l/m 21,3 km/h (4 Bft) 0 min 0 min
11.01.2020 07:29 22,3 C 4,8 C 4,3 C 75 % 1 % 1032 hPa 0,0 l/m 13,8 km/h (3 Bft) 0 min 0 min
11.01.2020 07:32 22,3 C 4,7 C 4,3 C 75 % 1 % 1032 hPa 0,0 l/m 13,8 km/h (3 Bft) 0 min 0 min
11.01.2020 07:35 22,3 C 4,7 C 4,2 C 75 % 1 % 1032 hPa 0,0 l/m 12,6 km/h (3 Bft) 0 min 0 min
11.01.2020 07:38 22,3 C 4,8 C 4,2 C 75 % 1 % 1032 hPa 0,0 l/m 11,3 km/h (2 Bft) 0 min 0 min
11.01.2020 07:41 22,3 C 4,7 C 4,2 C 75 % 1 % 1032 hPa 0,0 l/m 11,3 km/h (2 Bft) 0 min 0 min
11.01.2020 07:44 22,3 C 4,6 C 4,2 C 76 % 1 % 1032 hPa 0,0 l/m 12,0 km/h (2 Bft) 0 min 0 min
11.01.2020 07:47 22,3 C 4,6 C 4,2 C 76 % 1 % 1032 hPa 0,0 l/m 7,9 km/h (2 Bft) 0 min 0 min
11.01.2020 07:50 22,3 C 4,6 C 4,2 C 76 % 1 % 1033 hPa 0,0 l/m 18,1 km/h (3 Bft) 0 min 0 min
11.01.2020 07:53 22,3 C 4,6 C 4,3 C 76 % 1 % 1033 hPa 0,0 l/m 11,1 km/h (2 Bft) 0 min 0 min
11.01.2020 07:56 22,3 C 4,6 C 4,3 C 76 % 1 % 1033 hPa 0,0 l/m 13,6 km/h (3 Bft) 0 min 0 min
11.01.2020 07:59 22,3 C 4,6 C 4,2 C 76 % 1 % 1033 hPa 0,0 l/m 14,8 km/h (3 Bft) 0 min 0 min
11.01.2020 08:02 22,3 C 4,6 C 4,2 C 76 % 2 % 1033 hPa 0,0 l/m 10,6 km/h (2 Bft) 0 min 0 min
11.01.2020 08:05 22,3 C 4,6 C 4,2 C 76 % 2 % 1033 hPa 0,0 l/m 8,8 km/h (2 Bft) 0 min 0 min
11.01.2020 08:08 22,3 C 4,5 C 4,2 C 76 % 2 % 1033 hPa 0,0 l/m 9,8 km/h (2 Bft) 0 min 0 min
11.01.2020 08:11 22,3 C 4,5 C 4,1 C 76 % 3 % 1033 hPa 0,0 l/m 11,1 km/h (2 Bft) 0 min 0 min
11.01.2020 08:14 22,3 C 4,5 C 4,1 C 76 % 3 % 1033 hPa 0,0 l/m 7,9 km/h (2 Bft) 0 min 0 min
11.01.2020 08:17 22,3 C 4,4 C 4,1 C 76 % 3 % 1033 hPa 0,0 l/m 7,8 km/h (2 Bft) 0 min 0 min
11.01.2020 08:20 22,3 C 4,4 C 4,1 C 76 % 4 % 1033 hPa 0,0 l/m 9,3 km/h (2 Bft) 0 min 0 min
11.01.2020 08:23 22,3 C 4,3 C 4,0 C 76 % 4 % 1033 hPa 0,0 l/m 7,5 km/h (2 Bft) 0 min 0 min
11.01.2020 08:26 22,3 C 4,3 C 4,0 C 77 % 5 % 1033 hPa 0,0 l/m 9,6 km/h (2 Bft) 0 min 0 min
11.01.2020 08:29 22,3 C 4,3 C 4,0 C 76 % 5 % 1033 hPa 0,0 l/m 13,5 km/h (3 Bft) 0 min 0 min
11.01.2020 08:32 22,3 C 4,3 C 4,0 C 76 % 5 % 1033 hPa 0,0 l/m 7,6 km/h (2 Bft) 0 min 0 min
11.01.2020 08:35 22,3 C 4,3 C 4,0 C 76 % 5 % 1033 hPa 0,0 l/m 5,4 km/h (1 Bft) 0 min 0 min
11.01.2020 08:38 22,3 C 4,3 C 4,0 C 76 % 6 % 1033 hPa 0,0 l/m 5,6 km/h (1 Bft) 0 min 0 min
11.01.2020 08:41 22,3 C 4,2 C 3,9 C 76 % 6 % 1033 hPa 0,0 l/m 6,7 km/h (2 Bft) 0 min 0 min
11.01.2020 08:44 22,3 C 4,2 C 3,9 C 76 % 6 % 1033 hPa 0,0 l/m 6,4 km/h (2 Bft) 0 min 0 min
11.01.2020 08:50 22,3 C 4,2 C 3,9 C 76 % 7 % 1033 hPa 0,0 l/m 4,4 km/h (1 Bft) 0 min 0 min
11.01.2020 08:53 22,3 C 4,2 C 3,9 C 76 % 7 % 1033 hPa 0,0 l/m 8,4 km/h (2 Bft) 0 min 0 min
11.01.2020 08:56 22,3 C 4,2 C 3,9 C 76 % 7 % 1033 hPa 0,0 l/m 7,2 km/h (2 Bft) 0 min 0 min
11.01.2020 08:59 22,3 C 4,2 C 3,9 C 76 % 9 % 1033 hPa 0,0 l/m 9,2 km/h (2 Bft) 0 min 0 min
11.01.2020 09:02 22,3 C 4,2 C 3,8 C 76 % 10 % 1033 hPa 0,0 l/m 9,2 km/h (2 Bft) 0 min 0 min
11.01.2020 09:05 22,2 C 4,1 C 3,9 C 76 % 12 % 1033 hPa 0,0 l/m 3,4 km/h (1 Bft) 0 min 0 min
11.01.2020 09:08 22,3 C 4,1 C 3,9 C 76 % 13 % 1033 hPa 0,0 l/m 4,2 km/h (1 Bft) 0 min 0 min
11.01.2020 09:11 22,3 C 4,0 C 3,8 C 76 % 13 % 1033 hPa 0,0 l/m 7,7 km/h (2 Bft) 0 min 0 min
11.01.2020 09:14 22,3 C 4,0 C 3,8 C 75 % 12 % 1033 hPa 0,0 l/m 6,1 km/h (2 Bft) 0 min 0 min
11.01.2020 09:17 22,3 C 3,9 C 3,7 C 75 % 12 % 1033 hPa 0,0 l/m 6,9 km/h (2 Bft) 0 min 0 min
11.01.2020 09:20 22,3 C 3,9 C 3,6 C 75 % 12 % 1033 hPa 0,0 l/m 7,8 km/h (2 Bft) 0 min 0 min
11.01.2020 09:23 22,3 C 3,8 C 3,6 C 75 % 12 % 1034 hPa 0,0 l/m 7,8 km/h (2 Bft) 0 min 0 min
11.01.2020 09:26 22,3 C 3,7 C 3,6 C 75 % 12 % 1034 hPa 0,0 l/m 10,5 km/h (2 Bft) 0 min 0 min
11.01.2020 09:29 22,3 C 3,7 C 3,6 C 75 % 13 % 1034 hPa 0,0 l/m 7,1 km/h (2 Bft) 0 min 0 min
11.01.2020 09:32 22,4 C 3,7 C 3,6 C 75 % 12 % 1034 hPa 0,0 l/m 6,7 km/h (2 Bft) 0 min 0 min
11.01.2020 09:35 22,4 C 3,7 C 3,6 C 75 % 13 % 1034 hPa 0,0 l/m 5,6 km/h (1 Bft) 0 min 0 min
11.01.2020 09:38 22,3 C 3,7 C 3,5 C 75 % 13 % 1034 hPa 0,0 l/m 7,6 km/h (2 Bft) 0 min 0 min
11.01.2020 09:41 22,4 C 3,6 C 3,5 C 75 % 14 % 1034 hPa 0,0 l/m 7,9 km/h (2 Bft) 0 min 0 min
11.01.2020 09:44 22,4 C 3,6 C 3,5 C 75 % 14 % 1034 hPa 0,0 l/m 14,5 km/h (3 Bft) 0 min 0 min
11.01.2020 09:47 22,4 C 3,9 C 3,6 C 74 % 14 % 1034 hPa 0,0 l/m 12,9 km/h (3 Bft) 0 min 0 min
11.01.2020 09:50 22,3 C 3,9 C 3,6 C 74 % 16 % 1034 hPa 0,0 l/m 9,2 km/h (2 Bft) 0 min 0 min
11.01.2020 09:53 22,4 C 3,9 C 3,6 C 74 % 16 % 1034 hPa 0,0 l/m 10,7 km/h (2 Bft) 0 min 0 min
11.01.2020 09:56 22,4 C 4,0 C 3,7 C 74 % 16 % 1034 hPa 0,0 l/m 15,1 km/h (3 Bft) 0 min 0 min
11.01.2020 09:59 22,4 C 4,0 C 3,8 C 74 % 14 % 1034 hPa 0,0 l/m 4,9 km/h (1 Bft) 0 min 0 min
11.01.2020 10:02 22,4 C 4,3 C 3,9 C 73 % 14 % 1034 hPa 0,0 l/m 12,8 km/h (3 Bft) 0 min 0 min
11.01.2020 10:05 22,4 C 4,3 C 3,8 C 73 % 14 % 1034 hPa 0,0 l/m 11,8 km/h (2 Bft) 0 min 0 min
11.01.2020 10:08 22,4 C 4,1 C 3,7 C 73 % 15 % 1034 hPa 0,0 l/m 9,4 km/h (2 Bft) 0 min 0 min
11.01.2020 10:11 22,4 C 4,1 C 3,7 C 73 % 16 % 1034 hPa 0,0 l/m 10,6 km/h (2 Bft) 0 min 0 min
11.01.2020 10:14 22,4 C 4,2 C 3,7 C 73 % 18 % 1034 hPa 0,0 l/m 9,8 km/h (2 Bft) 0 min 0 min
11.01.2020 10:17 22,4 C 4,3 C 3,7 C 73 % 19 % 1034 hPa 0,0 l/m 8,2 km/h (2 Bft) 0 min 0 min
11.01.2020 10:20 22,4 C 4,3 C 3,7 C 73 % 21 % 1034 hPa 0,0 l/m 11,4 km/h (2 Bft) 0 min 0 min
11.01.2020 10:23 22,4 C 4,5 C 3,8 C 72 % 19 % 1034 hPa 0,0 l/m 8,1 km/h (2 Bft) 0 min 0 min
11.01.2020 10:26 22,4 C 4,7 C 3,9 C 72 % 19 % 1034 hPa 0,0 l/m 7,4 km/h (2 Bft) 0 min 0 min
11.01.2020 10:29 22,4 C 4,9 C 3,9 C 71 % 43 % 1034 hPa 0,0 l/m 13,0 km/h (3 Bft) 3 min 0 min
11.01.2020 10:32 22,4 C 5,1 C 4,1 C 71 % 66 % 1034 hPa 0,0 l/m 13,5 km/h (3 Bft) 3 min 0 min
11.01.2020 10:35 22,4 C 5,2 C 4,1 C 69 % 81 % 1034 hPa 0,0 l/m 15,0 km/h (3 Bft) 3 min 0 min
11.01.2020 10:38 22,5 C 5,2 C 4,1 C 69 % 82 % 1034 hPa 0,0 l/m 14,0 km/h (3 Bft) 3 min 0 min
11.01.2020 10:41 22,4 C 5,2 C 4,1 C 69 % 82 % 1034 hPa 0,0 l/m 13,0 km/h (3 Bft) 3 min 0 min
11.01.2020 10:44 22,5 C 5,4 C 4,2 C 69 % 81 % 1034 hPa 0,0 l/m 12,0 km/h (2 Bft) 3 min 0 min
11.01.2020 10:47 22,5 C 5,6 C 4,2 C 68 % 51 % 1034 hPa 0,0 l/m 9,4 km/h (2 Bft) 0 min 0 min
11.01.2020 10:50 22,6 C 5,7 C 4,2 C 68 % 24 % 1034 hPa 0,0 l/m 8,9 km/h (2 Bft) 0 min 0 min
11.01.2020 10:53 22,6 C 5,8 C 4,2 C 67 % 78 % 1034 hPa 0,0 l/m 9,8 km/h (2 Bft) 3 min 0 min
11.01.2020 10:56 22,6 C 5,8 C 4,2 C 68 % 41 % 1034 hPa 0,0 l/m 9,5 km/h (2 Bft) 0 min 0 min
11.01.2020 10:59 22,6 C 5,8 C 4,4 C 67 % 69 % 1034 hPa 0,0 l/m 14,4 km/h (3 Bft) 3 min 0 min
11.01.2020 11:02 22,6 C 5,9 C 4,4 C 67 % 24 % 1034 hPa 0,0 l/m 12,5 km/h (3 Bft) 0 min 0 min
11.01.2020 11:05 22,7 C 5,9 C 4,3 C 67 % 23 % 1034 hPa 0,0 l/m 11,1 km/h (2 Bft) 0 min 0 min
11.01.2020 11:08 22,8 C 5,9 C 4,3 C 67 % 65 % 1034 hPa 0,0 l/m 9,0 km/h (2 Bft) 3 min 0 min
11.01.2020 11:11 22,8 C 6,0 C 4,4 C 66 % 35 % 1034 hPa 0,0 l/m 12,0 km/h (2 Bft) 0 min 0 min
11.01.2020 11:14 22,8 C 6,2 C 4,5 C 66 % 83 % 1034 hPa 0,0 l/m 12,0 km/h (2 Bft) 3 min 0 min
11.01.2020 11:17 22,9 C 6,4 C 4,5 C 64 % 83 % 1034 hPa 0,0 l/m 13,8 km/h (3 Bft) 3 min 0 min
11.01.2020 11:20 23,0 C 6,1 C 4,4 C 65 % 35 % 1034 hPa 0,0 l/m 7,8 km/h (2 Bft) 0 min 0 min
11.01.2020 11:23 22,9 C 6,1 C 4,3 C 65 % 31 % 1034 hPa 0,0 l/m 11,1 km/h (2 Bft) 0 min 0 min
11.01.2020 11:26 22,8 C 5,8 C 4,3 C 65 % 25 % 1034 hPa 0,0 l/m 13,6 km/h (3 Bft) 0 min 0 min
11.01.2020 11:29 22,8 C 5,6 C 4,4 C 65 % 30 % 1034 hPa 0,0 l/m 12,7 km/h (3 Bft) 0 min 0 min
11.01.2020 11:32 22,8 C 5,6 C 4,4 C 66 % 26 % 1034 hPa 0,0 l/m 12,7 km/h (3 Bft) 0 min 0 min
11.01.2020 11:35 22,7 C 5,6 C 4,4 C 66 % 27 % 1034 hPa 0,0 l/m 8,6 km/h (2 Bft) 0 min 0 min
11.01.2020 11:38 22,7 C 5,4 C 4,6 C 66 % 26 % 1034 hPa 0,0 l/m 6,1 km/h (2 Bft) 0 min 0 min
11.01.2020 11:41 22,7 C 5,4 C 4,6 C 67 % 26 % 1034 hPa 0,0 l/m 5,9 km/h (2 Bft) 0 min 0 min
11.01.2020 11:44 22,6 C 5,4 C 4,5 C 67 % 26 % 1034 hPa 0,0 l/m 5,2 km/h (1 Bft) 0 min 0 min
11.01.2020 11:47 22,6 C 5,5 C 4,7 C 67 % 26 % 1034 hPa 0,0 l/m 7,2 km/h (2 Bft) 0 min 0 min
11.01.2020 11:50 22,6 C 5,6 C 4,6 C 67 % 50 % 1034 hPa 0,0 l/m 7,2 km/h (2 Bft) 0 min 0 min
11.01.2020 11:53 22,6 C 5,6 C 4,7 C 67 % 28 % 1034 hPa 0,0 l/m 2,7 km/h (1 Bft) 0 min 0 min
11.01.2020 11:56 22,6 C 5,6 C 4,7 C 65 % 33 % 1034 hPa 0,0 l/m 3,1 km/h (1 Bft) 0 min 0 min
11.01.2020 11:59 22,6 C 5,9 C 4,8 C 66 % 36 % 1034 hPa 0,0 l/m 6,1 km/h (2 Bft) 0 min 0 min
11.01.2020 12:02 22,5 C 6,0 C 4,8 C 66 % 35 % 1034 hPa 0,0 l/m 5,0 km/h (1 Bft) 0 min 0 min
11.01.2020 12:05 22,5 C 6,0 C 4,9 C 65 % 33 % 1034 hPa 0,0 l/m 5,6 km/h (1 Bft) 0 min 0 min
11.01.2020 12:08 22,5 C 5,9 C 4,8 C 65 % 36 % 1034 hPa 0,0 l/m 5,7 km/h (1 Bft) 0 min 0 min
11.01.2020 12:11 22,5 C 6,0 C 5,0 C 66 % 41 % 1034 hPa 0,0 l/m 9,6 km/h (2 Bft) 0 min 0 min
11.01.2020 12:14 22,5 C 6,1 C 4,8 C 65 % 48 % 1034 hPa 0,0 l/m 8,9 km/h (2 Bft) 0 min 0 min
11.01.2020 12:17 22,4 C 6,1 C 4,8 C 65 % 82 % 1034 hPa 0,0 l/m 10,1 km/h (2 Bft) 3 min 0 min
11.01.2020 12:20 22,4 C 6,0 C 4,6 C 64 % 46 % 1034 hPa 0,0 l/m 13,7 km/h (3 Bft) 0 min 0 min
11.01.2020 12:23 22,3 C 6,0 C 4,7 C 65 % 45 % 1034 hPa 0,0 l/m 6,6 km/h (2 Bft) 0 min 0 min
11.01.2020 12:26 22,3 C 6,1 C 4,8 C 65 % 84 % 1034 hPa 0,0 l/m 7,6 km/h (2 Bft) 3 min 0 min
11.01.2020 12:29 22,3 C 6,6 C 4,9 C 65 % 48 % 1034 hPa 0,0 l/m 8,0 km/h (2 Bft) 0 min 0 min
11.01.2020 12:32 22,3 C 6,8 C 5,0 C 63 % 48 % 1034 hPa 0,0 l/m 10,8 km/h (2 Bft) 0 min 0 min
11.01.2020 12:35 22,3 C 6,6 C 4,9 C 62 % 48 % 1034 hPa 0,0 l/m 11,0 km/h (2 Bft) 0 min 0 min
11.01.2020 12:38 21,2 C 6,6 C 4,8 C 62 % 28 % 1034 hPa 0,0 l/m 5,2 km/h (1 Bft) 0 min 0 min
11.01.2020 12:41 20,5 C 6,2 C 4,7 C 64 % 40 % 1034 hPa 0,0 l/m 6,4 km/h (2 Bft) 0 min 0 min
11.01.2020 12:44 20,1 C 6,0 C 4,8 C 64 % 40 % 1034 hPa 0,0 l/m 5,5 km/h (1 Bft) 0 min 0 min
11.01.2020 12:47 20,0 C 6,0 C 4,6 C 64 % 26 % 1034 hPa 0,0 l/m 6,3 km/h (2 Bft) 0 min 0 min
11.01.2020 12:50 20,1 C 5,8 C 4,6 C 65 % 27 % 1034 hPa 0,0 l/m 5,2 km/h (1 Bft) 0 min 0 min
11.01.2020 12:53 20,1 C 5,8 C 4,6 C 65 % 28 % 1034 hPa 0,0 l/m 7,4 km/h (2 Bft) 0 min 0 min
11.01.2020 12:56 20,5 C 5,7 C 4,5 C 65 % 30 % 1034 hPa 0,0 l/m 4,3 km/h (1 Bft) 0 min 0 min
11.01.2020 12:59 20,7 C 5,7 C 4,6 C 65 % 28 % 1034 hPa 0,0 l/m 10,0 km/h (2 Bft) 0 min 0 min
11.01.2020 13:02 21,0 C 5,8 C 4,7 C 64 % 25 % 1034 hPa 0,0 l/m 5,9 km/h (2 Bft) 0 min 0 min
11.01.2020 13:05 21,3 C 5,8 C 4,7 C 64 % 23 % 1034 hPa 0,0 l/m 5,6 km/h (1 Bft) 0 min 0 min
11.01.2020 13:08 21,4 C 5,9 C 4,7 C 64 % 23 % 1034 hPa 0,0 l/m 6,8 km/h (2 Bft) 0 min 0 min
11.01.2020 13:11 21,6 C 5,8 C 4,6 C 63 % 22 % 1034 hPa 0,0 l/m 6,9 km/h (2 Bft) 0 min 0 min
11.01.2020 13:14 21,6 C 5,8 C 4,7 C 64 % 28 % 1034 hPa 0,0 l/m 2,2 km/h (1 Bft) 0 min 0 min
11.01.2020 13:17 21,7 C 5,8 C 4,9 C 63 % 69 % 1034 hPa 0,0 l/m 2,9 km/h (1 Bft) 3 min 0 min
11.01.2020 13:20 21,8 C 5,9 C 4,9 C 63 % 30 % 1034 hPa 0,0 l/m 5,1 km/h (1 Bft) 0 min 0 min
11.01.2020 13:23 21,8 C 5,9 C 4,8 C 63 % 27 % 1034 hPa 0,0 l/m 2,4 km/h (1 Bft) 0 min 0 min
11.01.2020 13:26 21,8 C 5,9 C 4,8 C 63 % 25 % 1034 hPa 0,0 l/m 11,8 km/h (2 Bft) 0 min 0 min
11.01.2020 13:29 21,8 C 5,9 C 4,8 C 63 % 28 % 1034 hPa 0,0 l/m 5,3 km/h (1 Bft) 0 min 0 min
11.01.2020 13:32 21,9 C 5,9 C 5,0 C 62 % 26 % 1034 hPa 0,0 l/m 10,1 km/h (2 Bft) 0 min 0 min
11.01.2020 13:35 21,9 C 6,0 C 4,8 C 61 % 21 % 1034 hPa 0,0 l/m 6,2 km/h (2 Bft) 0 min 0 min
11.01.2020 13:38 21,9 C 5,9 C 4,8 C 63 % 19 % 1034 hPa 0,0 l/m 5,0 km/h (1 Bft) 0 min 0 min
11.01.2020 13:41 22,0 C 5,9 C 5,0 C 62 % 18 % 1034 hPa 0,0 l/m 5,8 km/h (2 Bft) 0 min 0 min
11.01.2020 13:44 22,0 C 5,9 C 4,9 C 61 % 19 % 1034 hPa 0,0 l/m 6,7 km/h (2 Bft) 0 min 0 min
11.01.2020 13:47 22,0 C 5,8 C 5,1 C 62 % 20 % 1034 hPa 0,0 l/m 6,5 km/h (2 Bft) 0 min 0 min
11.01.2020 13:50 22,0 C 5,8 C 5,0 C 61 % 18 % 1034 hPa 0,0 l/m 6,9 km/h (2 Bft) 0 min 0 min
11.01.2020 13:53 22,0 C 5,8 C 5,0 C 62 % 18 % 1034 hPa 0,0 l/m 5,8 km/h (2 Bft) 0 min 0 min
11.01.2020 13:56 22,0 C 5,8 C 4,9 C 63 % 18 % 1034 hPa 0,0 l/m 6,6 km/h (2 Bft) 0 min 0 min
11.01.2020 13:59 22,0 C 5,8 C 4,7 C 63 % 17 % 1034 hPa 0,0 l/m 6,6 km/h (2 Bft) 0 min 0 min
11.01.2020 14:02 22,0 C 5,8 C 4,9 C 63 % 16 % 1034 hPa 0,0 l/m 4,0 km/h (1 Bft) 0 min 0 min
11.01.2020 14:05 22,0 C 5,8 C 4,7 C 63 % 14 % 1034 hPa 0,0 l/m 7,1 km/h (2 Bft) 0 min 0 min
11.01.2020 14:08 22,0 C 5,8 C 4,7 C 63 % 14 % 1034 hPa 0,0 l/m 8,7 km/h (2 Bft) 0 min 0 min
11.01.2020 14:11 22,1 C 5,7 C 4,8 C 63 % 13 % 1034 hPa 0,0 l/m 8,0 km/h (2 Bft) 0 min 0 min
11.01.2020 14:14 22,0 C 5,6 C 4,8 C 64 % 12 % 1034 hPa 0,0 l/m 3,3 km/h (1 Bft) 0 min 0 min
11.01.2020 14:17 22,0 C 5,6 C 4,8 C 64 % 11 % 1034 hPa 0,0 l/m 3,7 km/h (1 Bft) 0 min 0 min
11.01.2020 14:20 22,1 C 5,6 C 4,8 C 64 % 9 % 1034 hPa 0,0 l/m 3,8 km/h (1 Bft) 0 min 0 min
11.01.2020 14:23 22,1 C 5,6 C 4,8 C 64 % 9 % 1034 hPa 0,0 l/m 0,4 km/h (0 Bft) 0 min 0 min
11.01.2020 14:26 22,1 C 5,6 C 4,8 C 65 % 9 % 1034 hPa 0,0 l/m 4,5 km/h (1 Bft) 0 min 0 min
11.01.2020 14:29 22,1 C 5,6 C 4,7 C 65 % 8 % 1034 hPa 0,0 l/m 6,0 km/h (2 Bft) 0 min 0 min
11.01.2020 14:32 22,1 C 5,6 C 4,8 C 65 % 8 % 1034 hPa 0,0 l/m 1,3 km/h (1 Bft) 0 min 0 min
11.01.2020 14:35 22,1 C 5,5 C 4,7 C 65 % 8 % 1033 hPa 0,0 l/m 2,5 km/h (1 Bft) 0 min 0 min
11.01.2020 14:38 22,2 C 5,5 C 4,7 C 65 % 8 % 1033 hPa 0,0 l/m 0,9 km/h (0 Bft) 0 min 0 min
11.01.2020 14:41 22,1 C 5,5 C 4,8 C 64 % 8 % 1033 hPa 0,0 l/m 3,3 km/h (1 Bft) 0 min 0 min
11.01.2020 14:44 22,2 C 5,4 C 4,8 C 64 % 8 % 1033 hPa 0,0 l/m 5,3 km/h (1 Bft) 0 min 0 min
11.01.2020 14:47 22,2 C 5,4 C 4,9 C 64 % 8 % 1033 hPa 0,0 l/m 4,0 km/h (1 Bft) 0 min 0 min
11.01.2020 14:50 22,2 C 5,4 C 4,9 C 64 % 7 % 1033 hPa 0,0 l/m 4,0 km/h (1 Bft) 0 min 0 min
11.01.2020 14:53 22,2 C 5,4 C 4,7 C 65 % 7 % 1033 hPa 0,0 l/m 3,1 km/h (1 Bft) 0 min 0 min
11.01.2020 14:56 22,2 C 5,3 C 4,6 C 65 % 7 % 1033 hPa 0,0 l/m 4,3 km/h (1 Bft) 0 min 0 min
11.01.2020 14:59 22,2 C 5,3 C 4,6 C 65 % 7 % 1034 hPa 0,0 l/m 4,3 km/h (1 Bft) 0 min 0 min
11.01.2020 15:02 22,3 C 5,3 C 4,6 C 66 % 8 % 1033 hPa 0,0 l/m 2,3 km/h (1 Bft) 0 min 0 min
11.01.2020 15:05 22,2 C 5,3 C 4,6 C 66 % 8 % 1034 hPa 0,0 l/m 1,5 km/h (1 Bft) 0 min 0 min
11.01.2020 15:08 22,2 C 5,2 C 4,6 C 67 % 7 % 1034 hPa 0,0 l/m 3,4 km/h (1 Bft) 0 min 0 min
11.01.2020 15:11 22,3 C 5,2 C 4,5 C 67 % 7 % 1033 hPa 0,0 l/m 3,9 km/h (1 Bft) 0 min 0 min
11.01.2020 15:14 22,3 C 5,2 C 4,7 C 67 % 7 % 1033 hPa 0,0 l/m 1,4 km/h (1 Bft) 0 min 0 min
11.01.2020 15:17 22,3 C 5,2 C 4,7 C 67 % 6 % 1034 hPa 0,0 l/m 1,2 km/h (1 Bft) 0 min 0 min
11.01.2020 15:20 22,3 C 5,2 C 4,6 C 67 % 6 % 1034 hPa 0,0 l/m 0,9 km/h (0 Bft) 0 min 0 min
11.01.2020 15:23 22,3 C 5,2 C 4,7 C 67 % 6 % 1034 hPa 0,0 l/m 2,5 km/h (1 Bft) 0 min 0 min
11.01.2020 15:26 22,4 C 5,2 C 4,6 C 67 % 6 % 1034 hPa 0,0 l/m 0,0 km/h (0 Bft) 0 min 0 min
11.01.2020 15:29 22,3 C 5,2 C 4,6 C 68 % 6 % 1034 hPa 0,0 l/m 0,2 km/h (0 Bft) 0 min 0 min
11.01.2020 15:32 22,3 C 5,2 C 4,5 C 68 % 5 % 1033 hPa 0,0 l/m 0,2 km/h (0 Bft) 0 min 0 min
11.01.2020 15:35 22,3 C 5,1 C 4,5 C 68 % 5 % 1033 hPa 0,0 l/m 1,5 km/h (1 Bft) 0 min 0 min
11.01.2020 15:38 22,3 C 5,1 C 4,4 C 68 % 5 % 1033 hPa 0,0 l/m 0,5 km/h (0 Bft) 0 min 0 min
11.01.2020 15:41 22,3 C 5,1 C 4,4 C 68 % 5 % 1034 hPa 0,0 l/m 0,7 km/h (0 Bft) 0 min 0 min
11.01.2020 15:44 22,4 C 5,1 C 4,4 C 68 % 5 % 1034 hPa 0,0 l/m 0,4 km/h (0 Bft) 0 min 0 min
11.01.2020 15:47 22,3 C 5,1 C 4,3 C 68 % 4 % 1034 hPa 0,0 l/m 0,1 km/h (0 Bft) 0 min 0 min
11.01.2020 15:50 22,4 C 4,9 C 4,3 C 69 % 4 % 1034 hPa 0,0 l/m 1,6 km/h (1 Bft) 0 min 0 min
11.01.2020 15:53 22,4 C 4,9 C 4,3 C 69 % 4 % 1034 hPa 0,0 l/m 3,1 km/h (1 Bft) 0 min 0 min
11.01.2020 15:56 22,4 C 4,9 C 4,3 C 68 % 3 % 1034 hPa 0,0 l/m 0,1 km/h (0 Bft) 0 min 0 min
11.01.2020 15:59 22,4 C 4,9 C 4,4 C 68 % 3 % 1034 hPa 0,0 l/m 0,0 km/h (0 Bft) 0 min 0 min
11.01.2020 16:02 22,3 C 4,8 C 4,3 C 69 % 3 % 1033 hPa 0,0 l/m 0,0 km/h (0 Bft) 0 min 0 min
11.01.2020 16:05 22,4 C 4,8 C 4,2 C 69 % 3 % 1033 hPa 0,0 l/m 0,1 km/h (0 Bft) 0 min 0 min
11.01.2020 16:08 22,4 C 4,8 C 4,3 C 68 % 2 % 1033 hPa 0,0 l/m 0,0 km/h (0 Bft) 0 min 0 min
11.01.2020 16:11 22,4 C 4,7 C 4,3 C 68 % 2 % 1033 hPa 0,0 l/m 0,0 km/h (0 Bft) 0 min 0 min
11.01.2020 16:14 22,4 C 4,7 C 4,3 C 69 % 2 % 1033 hPa 0,0 l/m 0,0 km/h (0 Bft) 0 min 0 min
11.01.2020 16:17 22,4 C 4,7 C 4,4 C 69 % 2 % 1033 hPa 0,0 l/m 0,0 km/h (0 Bft) 0 min 0 min
11.01.2020 16:20 22,4 C 4,7 C 4,3 C 69 % 1 % 1033 hPa 0,0 l/m 0,1 km/h (0 Bft) 0 min 0 min
11.01.2020 16:23 22,3 C 4,6 C 4,3 C 68 % 1 % 1033 hPa 0,0 l/m 0,6 km/h (0 Bft) 0 min 0 min
11.01.2020 16:26 22,0 C 4,6 C 4,2 C 69 % 1 % 1033 hPa 0,0 l/m 2,1 km/h (1 Bft) 0 min 0 min
11.01.2020 16:29 21,6 C 4,6 C 4,3 C 69 % 1 % 1033 hPa 0,0 l/m 3,4 km/h (1 Bft) 0 min 0 min
11.01.2020 16:32 21,4 C 4,5 C 4,2 C 69 % 1 % 1033 hPa 0,0 l/m 1,0 km/h (0 Bft) 0 min 0 min
11.01.2020 16:35 21,4 C 4,5 C 4,2 C 69 % 1 % 1033 hPa 0,0 l/m 1,0 km/h (0 Bft) 0 min 0 min
11.01.2020 16:38 21,4 C 4,5 C 4,1 C 69 % 1 % 1033 hPa 0,0 l/m 0,1 km/h (0 Bft) 0 min 0 min
11.01.2020 16:41 21,4 C 4,4 C 4,1 C 70 % 0 % 1033 hPa 0,0 l/m 1,2 km/h (1 Bft) 0 min 0 min
11.01.2020 16:44 21,7 C 4,4 C 4,1 C 70 % 0 % 1033 hPa 0,0 l/m 0,0 km/h (0 Bft) 0 min 0 min
11.01.2020 16:47 21,8 C 4,4 C 4,1 C 70 % 0 % 1033 hPa 0,0 l/m 0,0 km/h (0 Bft) 0 min 0 min
11.01.2020 16:50 21,8 C 4,4 C 4,1 C 70 % 0 % 1033 hPa 0,0 l/m 0,0 km/h (0 Bft) 0 min 0 min
11.01.2020 16:53 21,9 C 4,3 C 4,1 C 70 % 0 % 1033 hPa 0,0 l/m 0,0 km/h (0 Bft) 0 min 0 min
11.01.2020 16:56 21,9 C 4,3 C 4,1 C 70 % 0 % 1033 hPa 0,0 l/m 0,1 km/h (0 Bft) 0 min 0 min
11.01.2020 16:59 22,0 C 4,3 C 4,1 C 70 % 0 % 1033 hPa 0,0 l/m 0,0 km/h (0 Bft) 0 min 0 min
11.01.2020 17:02 22,0 C 4,3 C 4,1 C 70 % 0 % 1033 hPa 0,0 l/m 0,3 km/h (0 Bft) 0 min 0 min
11.01.2020 17:05 22,0 C 4,3 C 4,0 C 70 % 0 % 1033 hPa 0,0 l/m 0,0 km/h (0 Bft) 0 min 0 min
11.01.2020 17:08 22,0 C 4,3 C 3,9 C 70 % 0 % 1033 hPa 0,0 l/m 0,0 km/h (0 Bft) 0 min 0 min
11.01.2020 17:11 22,0 C 4,2 C 3,9 C 71 % 0 % 1033 hPa 0,0 l/m 0,0 km/h (0 Bft) 0 min 0 min
11.01.2020 17:14 22,0 C 4,1 C 3,9 C 71 % 0 % 1033 hPa 0,0 l/m 0,0 km/h (0 Bft) 0 min 0 min
11.01.2020 17:17 22,0 C 4,1 C 3,9 C 71 % 0 % 1033 hPa 0,0 l/m 0,0 km/h (0 Bft) 0 min 0 min
11.01.2020 17:20 22,1 C 4,0 C 3,8 C 73 % 0 % 1033 hPa 0,0 l/m 0,8 km/h (0 Bft) 0 min 0 min
11.01.2020 17:23 22,1 C 4,0 C 3,8 C 73 % 0 % 1033 hPa 0,0 l/m 0,0 km/h (0 Bft) 0 min 0 min
11.01.2020 17:26 22,1 C 3,9 C 3,8 C 73 % 0 % 1033 hPa 0,0 l/m 0,0 km/h (0 Bft) 0 min 0 min
11.01.2020 17:29 22,1 C 3,9 C 3,8 C 73 % 0 % 1033 hPa 0,0 l/m 0,0 km/h (0 Bft) 0 min 0 min
11.01.2020 17:32 22,1 C 3,8 C 3,8 C 73 % 0 % 1033 hPa 0,0 l/m 0,0 km/h (0 Bft) 0 min 0 min
11.01.2020 17:35 22,1 C 3,8 C 3,8 C 73 % 0 % 1033 hPa 0,0 l/m 0,0 km/h (0 Bft) 0 min 0 min
11.01.2020 17:38 22,1 C 3,8 C 3,8 C 73 % 0 % 1033 hPa 0,0 l/m 0,0 km/h (0 Bft) 0 min 0 min
11.01.2020 17:41 22,1 C 3,7 C 3,9 C 73 % 0 % 1033 hPa 0,0 l/m 0,0 km/h (0 Bft) 0 min 0 min
11.01.2020 17:44 22,2 C 3,7 C 3,8 C 73 % 0 % 1033 hPa 0,0 l/m 0,0 km/h (0 Bft) 0 min 0 min
11.01.2020 17:47 22,2 C 3,7 C 3,6 C 74 % 0 % 1033 hPa 0,0 l/m 0,0 km/h (0 Bft) 0 min 0 min
11.01.2020 17:50 22,2 C 3,7 C 3,7 C 73 % 0 % 1033 hPa 0,0 l/m 0,0 km/h (0 Bft) 0 min 0 min
11.01.2020 17:53 22,2 C 3,7 C 3,8 C 74 % 0 % 1033 hPa 0,0 l/m 0,0 km/h (0 Bft) 0 min 0 min
11.01.2020 17:56 22,2 C 3,6 C 3,7 C 74 % 0 % 1033 hPa 0,0 l/m 0,0 km/h (0 Bft) 0 min 0 min
11.01.2020 17:59 22,2 C 3,6 C 3,8 C 74 % 0 % 1033 hPa 0,0 l/m 0,0 km/h (0 Bft) 0 min 0 min
11.01.2020 18:02 22,2 C 3,6 C 3,6 C 74 % 0 % 1033 hPa 0,0 l/m 0,0 km/h (0 Bft) 0 min 0 min
11.01.2020 18:05 22,2 C 3,6 C 3,6 C 74 % 0 % 1033 hPa 0,0 l/m 0,0 km/h (0 Bft) 0 min 0 min
11.01.2020 18:08 22,2 C 3,6 C 3,5 C 74 % 0 % 1033 hPa 0,0 l/m 0,0 km/h (0 Bft) 0 min 0 min
11.01.2020 18:11 22,2 C 3,5 C 3,6 C 74 % 0 % 1033 hPa 0,0 l/m 0,0 km/h (0 Bft) 0 min 0 min
11.01.2020 18:14 22,2 C 3,5 C 3,6 C 74 % 0 % 1033 hPa 0,0 l/m 0,0 km/h (0 Bft) 0 min 0 min
11.01.2020 18:17 22,2 C 3,4 C 3,5 C 74 % 0 % 1033 hPa 0,0 l/m 0,4 km/h (0 Bft) 0 min 0 min
11.01.2020 18:20 21,6 C 3,4 C 3,5 C 74 % 0 % 1033 hPa 0,0 l/m 0,0 km/h (0 Bft) 0 min 0 min
11.01.2020 18:23 21,1 C 3,3 C 3,5 C 74 % 0 % 1033 hPa 0,0 l/m 0,0 km/h (0 Bft) 0 min 0 min
11.01.2020 18:26 20,6 C 3,3 C 3,5 C 74 % 0 % 1033 hPa 0,0 l/m 0,0 km/h (0 Bft) 0 min 0 min
11.01.2020 18:29 20,3 C 3,3 C 3,3 C 74 % 0 % 1033 hPa 0,0 l/m 0,0 km/h (0 Bft) 0 min 0 min
11.01.2020 18:32 20,3 C 3,1 C 3,4 C 75 % 0 % 1033 hPa 0,0 l/m 0,0 km/h (0 Bft) 0 min 0 min
11.01.2020 18:35 20,5 C 3,1 C 3,4 C 75 % 0 % 1033 hPa 0,0 l/m 0,0 km/h (0 Bft) 0 min 0 min
11.01.2020 18:38 20,5 C 3,0 C 3,5 C 75 % 0 % 1033 hPa 0,0 l/m 0,0 km/h (0 Bft) 0 min 0 min
11.01.2020 18:41 21,0 C 3,0 C 3,5 C 75 % 0 % 1033 hPa 0,0 l/m 0,0 km/h (0 Bft) 0 min 0 min
11.01.2020 18:44 21,2 C 3,0 C 3,3 C 75 % 0 % 1033 hPa 0,0 l/m 0,0 km/h (0 Bft) 0 min 0 min
11.01.2020 18:47 21,4 C 2,9 C 3,3 C 75 % 0 % 1033 hPa 0,0 l/m 0,0 km/h (0 Bft) 0 min 0 min
11.01.2020 18:50 21,5 C 2,9 C 3,2 C 75 % 0 % 1033 hPa 0,0 l/m 0,0 km/h (0 Bft) 0 min 0 min
11.01.2020 18:53 21,6 C 2,8 C 3,0 C 75 % 0 % 1033 hPa 0,0 l/m 0,0 km/h (0 Bft) 0 min 0 min
11.01.2020 18:56 21,7 C 2,7 C 3,0 C 76 % 0 % 1033 hPa 0,0 l/m 0,0 km/h (0 Bft) 0 min 0 min
11.01.2020 18:59 21,7 C 2,7 C 3,0 C 76 % 0 % 1033 hPa 0,0 l/m 0,0 km/h (0 Bft) 0 min 0 min
11.01.2020 19:02 21,8 C 2,6 C 3,2 C 76 % 0 % 1033 hPa 0,0 l/m 0,0 km/h (0 Bft) 0 min 0 min
11.01.2020 19:05 21,8 C 2,6 C 3,0 C 76 % 0 % 1033 hPa 0,0 l/m 0,0 km/h (0 Bft) 0 min 0 min
11.01.2020 19:08 21,8 C 2,6 C 3,0 C 77 % 0 % 1033 hPa 0,0 l/m 0,0 km/h (0 Bft) 0 min 0 min
11.01.2020 19:11 21,9 C 2,6 C 3,0 C 77 % 0 % 1033 hPa 0,0 l/m 0,0 km/h (0 Bft) 0 min 0 min
11.01.2020 19:14 21,9 C 2,7 C 3,0 C 77 % 0 % 1033 hPa 0,0 l/m 0,0 km/h (0 Bft) 0 min 0 min
11.01.2020 19:17 21,9 C 2,6 C 2,8 C 77 % 0 % 1033 hPa 0,0 l/m 0,0 km/h (0 Bft) 0 min 0 min
11.01.2020 19:20 22,0 C 2,5 C 2,7 C 77 % 0 % 1033 hPa 0,0 l/m 0,0 km/h (0 Bft) 0 min 0 min
11.01.2020 19:23 22,0 C 2,4 C 2,5 C 77 % 0 % 1033 hPa 0,0 l/m 0,0 km/h (0 Bft) 0 min 0 min
11.01.2020 19:26 22,0 C 2,3 C 2,6 C 77 % 0 % 1033 hPa 0,0 l/m 0,0 km/h (0 Bft) 0 min 0 min
11.01.2020 19:29 22,1 C 2,2 C 2,7 C 77 % 0 % 1033 hPa 0,0 l/m 0,0 km/h (0 Bft) 0 min 0 min
11.01.2020 19:32 22,1 C 2,1 C 2,6 C 77 % 0 % 1033 hPa 0,0 l/m 0,0 km/h (0 Bft) 0 min 0 min
11.01.2020 19:35 22,1 C 2,0 C 2,6 C 77 % 0 % 1033 hPa 0,0 l/m 0,1 km/h (0 Bft) 0 min 0 min
11.01.2020 19:38 22,2 C 1,9 C 2,5 C 77 % 0 % 1033 hPa 0,0 l/m 0,0 km/h (0 Bft) 0 min 0 min
11.01.2020 19:41 22,2 C 1,9 C 2,3 C 78 % 0 % 1033 hPa 0,0 l/m 0,0 km/h (0 Bft) 0 min 0 min
11.01.2020 19:44 22,2 C 1,7 C 2,3 C 78 % 0 % 1033 hPa 0,0 l/m 0,0 km/h (0 Bft) 0 min 0 min
11.01.2020 19:47 22,2 C 1,7 C 2,5 C 78 % 0 % 1033 hPa 0,0 l/m 0,1 km/h (0 Bft) 0 min 0 min
11.01.2020 19:50 22,2 C 1,5 C 2,6 C 78 % 0 % 1033 hPa 0,0 l/m 0,0 km/h (0 Bft) 0 min 0 min
11.01.2020 19:53 22,2 C 1,5 C 1,9 C 78 % 0 % 1033 hPa 0,0 l/m 0,0 km/h (0 Bft) 0 min 0 min
11.01.2020 19:56 22,2 C 1,3 C 2,3 C 78 % 0 % 1033 hPa 0,0 l/m 0,0 km/h (0 Bft) 0 min 0 min
11.01.2020 19:59 22,2 C 1,2 C 2,4 C 78 % 0 % 1033 hPa 0,0 l/m 0,0 km/h (0 Bft) 0 min 0 min
11.01.2020 20:02 22,2 C 1,2 C 2,2 C 78 % 0 % 1033 hPa 0,0 l/m 0,0 km/h (0 Bft) 0 min 0 min
11.01.2020 20:05 22,2 C 1,2 C 2,2 C 78 % 0 % 1033 hPa 0,0 l/m 0,0 km/h (0 Bft) 0 min 0 min
11.01.2020 20:08 22,2 C 1,1 C 2,1 C 78 % 0 % 1033 hPa 0,0 l/m 0,0 km/h (0 Bft) 0 min 0 min
11.01.2020 20:11 22,3 C 0,8 C 2,2 C 78 % 0 % 1033 hPa 0,0 l/m 0,0 km/h (0 Bft) 0 min 0 min
11.01.2020 20:14 22,3 C 0,7 C 2,1 C 78 % 0 % 1033 hPa 0,0 l/m 0,0 km/h (0 Bft) 0 min 0 min
11.01.2020 20:17 22,3 C 0,7 C 2,2 C 78 % 0 % 1033 hPa 0,0 l/m 0,0 km/h (0 Bft) 0 min 0 min
11.01.2020 20:20 22,3 C 0,5 C 1,5 C 78 % 0 % 1033 hPa 0,0 l/m 0,0 km/h (0 Bft) 0 min 0 min
11.01.2020 20:23 22,3 C 0,5 C 1,7 C 79 % 0 % 1033 hPa 0,0 l/m 0,0 km/h (0 Bft) 0 min 0 min
11.01.2020 20:26 22,3 C 0,5 C 2,1 C 79 % 0 % 1033 hPa 0,0 l/m 0,0 km/h (0 Bft) 0 min 0 min
11.01.2020 20:29 22,4 C 0,4 C 2,1 C 79 % 0 % 1033 hPa 0,0 l/m 0,0 km/h (0 Bft) 0 min 0 min
11.01.2020 20:32 22,3 C 0,3 C 2,1 C 79 % 0 % 1033 hPa 0,0 l/m 0,0 km/h (0 Bft) 0 min 0 min
11.01.2020 20:35 22,3 C 0,3 C 2,0 C 79 % 0 % 1033 hPa 0,0 l/m 0,0 km/h (0 Bft) 0 min 0 min
11.01.2020 20:38 22,4 C 0,3 C 2,0 C 79 % 0 % 1033 hPa 0,0 l/m 0,0 km/h (0 Bft) 0 min 0 min
11.01.2020 20:41 22,4 C 0,2 C 1,8 C 78 % 0 % 1033 hPa 0,0 l/m 0,0 km/h (0 Bft) 0 min 0 min
11.01.2020 20:44 22,4 C 0,1 C 1,9 C 78 % 0 % 1033 hPa 0,0 l/m 0,0 km/h (0 Bft) 0 min 0 min
11.01.2020 20:47 22,4 C 0,0 C 1,7 C 78 % 0 % 1033 hPa 0,0 l/m 0,7 km/h (0 Bft) 0 min 0 min
11.01.2020 20:50 22,4 C -0,2 C 1,7 C 78 % 0 % 1033 hPa 0,0 l/m 0,0 km/h (0 Bft) 0 min 0 min
11.01.2020 20:53 22,4 C -0,2 C 1,7 C 79 % 1 % 1033 hPa 0,0 l/m 0,0 km/h (0 Bft) 0 min 0 min
11.01.2020 20:56 22,4 C -0,3 C 1,7 C 79 % 1 % 1033 hPa 0,0 l/m 0,0 km/h (0 Bft) 0 min 0 min
11.01.2020 20:59 22,4 C -0,3 C 1,7 C 79 % 1 % 1033 hPa 0,0 l/m 0,0 km/h (0 Bft) 0 min 0 min
11.01.2020 21:02 22,4 C -0,3 C 1,5 C 79 % 1 % 1033 hPa 0,0 l/m 0,0 km/h (0 Bft) 0 min 0 min
11.01.2020 21:05 22,4 C -0,4 C 1,4 C 79 % 1 % 1033 hPa 0,0 l/m 0,0 km/h (0 Bft) 0 min 0 min
11.01.2020 21:08 22,4 C -0,4 C 1,4 C 79 % 1 % 1033 hPa 0,0 l/m 0,0 km/h (0 Bft) 0 min 0 min
11.01.2020 21:11 22,4 C -0,4 C 1,4 C 79 % 1 % 1033 hPa 0,0 l/m 0,0 km/h (0 Bft) 0 min 0 min
11.01.2020 21:14 22,4 C -0,4 C 1,7 C 79 % 1 % 1033 hPa 0,0 l/m 0,0 km/h (0 Bft) 0 min 0 min
11.01.2020 21:17 22,4 C -0,5 C 1,6 C 79 % 1 % 1033 hPa 0,0 l/m 0,0 km/h (0 Bft) 0 min 0 min
11.01.2020 21:20 22,4 C -0,6 C 1,5 C 79 % 1 % 1033 hPa 0,0 l/m 0,0 km/h (0 Bft) 0 min 0 min
11.01.2020 21:23 22,4 C -0,6 C 1,5 C 79 % 1 % 1033 hPa 0,0 l/m 0,1 km/h (0 Bft) 0 min 0 min
11.01.2020 21:26 22,4 C -0,7 C 1,6 C 79 % 1 % 1033 hPa 0,0 l/m 0,0 km/h (0 Bft) 0 min 0 min
11.01.2020 21:29 22,4 C -0,8 C 1,3 C 79 % 1 % 1033 hPa 0,0 l/m 0,0 km/h (0 Bft) 0 min 0 min
11.01.2020 21:32 22,4 C -0,8 C 1,1 C 79 % 1 % 1033 hPa 0,0 l/m 0,0 km/h (0 Bft) 0 min 0 min
11.01.2020 21:35 22,4 C -0,9 C 1,4 C 79 % 1 % 1033 hPa 0,0 l/m 0,0 km/h (0 Bft) 0 min 0 min
11.01.2020 21:38 22,4 C -0,9 C 1,4 C 79 % 1 % 1033 hPa 0,0 l/m 0,0 km/h (0 Bft) 0 min 0 min
11.01.2020 21:41 22,5 C -0,9 C 1,4 C 79 % 1 % 1033 hPa 0,0 l/m 0,0 km/h (0 Bft) 0 min 0 min
11.01.2020 21:44 22,5 C -1,0 C 1,4 C 79 % 1 % 1033 hPa 0,0 l/m 0,0 km/h (0 Bft) 0 min 0 min
11.01.2020 21:47 22,5 C -1,0 C 1,1 C 79 % 1 % 1033 hPa 0,0 l/m 0,0 km/h (0 Bft) 0 min 0 min
11.01.2020 21:50 22,5 C -1,0 C 1,2 C 79 % 1 % 1033 hPa 0,0 l/m 0,0 km/h (0 Bft) 0 min 0 min
11.01.2020 21:53 22,5 C -1,1 C 1,2 C 79 % 1 % 1033 hPa 0,0 l/m 0,0 km/h (0 Bft) 0 min 0 min
11.01.2020 21:56 22,5 C -1,1 C 1,4 C 79 % 1 % 1033 hPa 0,0 l/m 0,0 km/h (0 Bft) 0 min 0 min
11.01.2020 21:59 22,5 C -1,2 C 1,2 C 79 % 1 % 1033 hPa 0,0 l/m 0,0 km/h (0 Bft) 0 min 0 min
11.01.2020 22:02 22,5 C -1,2 C 1,2 C 79 % 1 % 1033 hPa 0,0 l/m 0,0 km/h (0 Bft) 0 min 0 min
11.01.2020 22:05 22,5 C -1,2 C 1,3 C 80 % 1 % 1033 hPa 0,0 l/m 0,0 km/h (0 Bft) 0 min 0 min
11.01.2020 22:08 22,5 C -1,2 C 1,4 C 80 % 1 % 1033 hPa 0,0 l/m 0,0 km/h (0 Bft) 0 min 0 min
11.01.2020 22:11 22,5 C -1,2 C 1,3 C 80 % 1 % 1033 hPa 0,0 l/m 0,0 km/h (0 Bft) 0 min 0 min
11.01.2020 22:14 22,4 C -1,3 C 1,3 C 80 % 1 % 1033 hPa 0,0 l/m 0,0 km/h (0 Bft) 0 min 0 min
11.01.2020 22:17 22,5 C -1,3 C 0,6 C 80 % 1 % 1033 hPa 0,0 l/m 0,0 km/h (0 Bft) 0 min 0 min
11.01.2020 22:20 22,5 C -1,4 C 0,6 C 80 % 1 % 1033 hPa 0,0 l/m 0,0 km/h (0 Bft) 0 min 0 min
11.01.2020 22:23 22,5 C -1,4 C 1,0 C 80 % 1 % 1033 hPa 0,0 l/m 0,0 km/h (0 Bft) 0 min 0 min
11.01.2020 22:26 22,4 C -1,4 C 1,0 C 80 % 1 % 1033 hPa 0,0 l/m 0,0 km/h (0 Bft) 0 min 0 min
11.01.2020 22:29 22,5 C -1,4 C 1,0 C 80 % 1 % 1033 hPa 0,0 l/m 0,0 km/h (0 Bft) 0 min 0 min
11.01.2020 22:32 22,5 C -1,5 C 0,8 C 80 % 1 % 1033 hPa 0,0 l/m 0,0 km/h (0 Bft) 0 min 0 min
11.01.2020 22:35 22,5 C -1,5 C 0,2 C 80 % 1 % 1033 hPa 0,0 l/m 0,0 km/h (0 Bft) 0 min 0 min
11.01.2020 22:38 22,5 C -1,5 C 0,2 C 80 % 1 % 1033 hPa 0,0 l/m 0,0 km/h (0 Bft) 0 min 0 min
11.01.2020 22:41 22,5 C -1,5 C 0,7 C 80 % 1 % 1032 hPa 0,0 l/m 0,0 km/h (0 Bft) 0 min 0 min
11.01.2020 22:44 22,5 C -1,6 C 0,8 C 80 % 1 % 1032 hPa 0,0 l/m 0,0 km/h (0 Bft) 0 min 0 min
11.01.2020 22:47 22,5 C -1,6 C 1,0 C 80 % 1 % 1032 hPa 0,0 l/m 0,0 km/h (0 Bft) 0 min 0 min
11.01.2020 22:50 22,5 C -1,6 C 1,0 C 80 % 1 % 1032 hPa 0,0 l/m 0,0 km/h (0 Bft) 0 min 0 min
11.01.2020 22:53 22,4 C -1,7 C 0,9 C 80 % 1 % 1032 hPa 0,0 l/m 0,0 km/h (0 Bft) 0 min 0 min
11.01.2020 22:56 22,5 C -1,7 C 0,9 C 80 % 1 % 1032 hPa 0,0 l/m 0,0 km/h (0 Bft) 0 min 0 min
11.01.2020 22:59 22,4 C -1,8 C 1,0 C 80 % 1 % 1032 hPa 0,0 l/m 0,0 km/h (0 Bft) 0 min 0 min
11.01.2020 23:02 22,5 C -1,8 C 0,9 C 80 % 1 % 1032 hPa 0,0 l/m 0,0 km/h (0 Bft) 0 min 0 min
11.01.2020 23:05 22,5 C -1,8 C 0,8 C 80 % 1 % 1032 hPa 0,0 l/m 0,0 km/h (0 Bft) 0 min 0 min
11.01.2020 23:08 22,5 C -1,8 C 0,8 C 80 % 1 % 1032 hPa 0,0 l/m 0,0 km/h (0 Bft) 0 min 0 min
11.01.2020 23:11 22,5 C -1,8 C 0,8 C 80 % 1 % 1032 hPa 0,0 l/m 0,0 km/h (0 Bft) 0 min 0 min
11.01.2020 23:14 22,5 C -1,9 C 0,6 C 80 % 1 % 1032 hPa 0,0 l/m 0,0 km/h (0 Bft) 0 min 0 min
11.01.2020 23:17 22,5 C -1,9 C 0,7 C 80 % 1 % 1032 hPa 0,0 l/m 0,0 km/h (0 Bft) 0 min 0 min
11.01.2020 23:20 22,6 C -1,9 C 0,8 C 80 % 1 % 1032 hPa 0,0 l/m 0,0 km/h (0 Bft) 0 min 0 min
11.01.2020 23:23 22,6 C -1,9 C 0,8 C 80 % 1 % 1032 hPa 0,0 l/m 0,0 km/h (0 Bft) 0 min 0 min
11.01.2020 23:26 22,6 C -1,9 C 0,7 C 80 % 1 % 1032 hPa 0,0 l/m 0,0 km/h (0 Bft) 0 min 0 min
11.01.2020 23:29 22,6 C -1,9 C 0,7 C 80 % 1 % 1032 hPa 0,0 l/m 0,0 km/h (0 Bft) 0 min 0 min
11.01.2020 23:32 22,6 C -2,0 C 0,4 C 80 % 1 % 1032 hPa 0,0 l/m 0,0 km/h (0 Bft) 0 min 0 min
11.01.2020 23:35 22,6 C -2,0 C 0,6 C 80 % 1 % 1032 hPa 0,0 l/m 0,0 km/h (0 Bft) 0 min 0 min
11.01.2020 23:38 22,6 C -2,0 C 0,8 C 80 % 1 % 1032 hPa 0,0 l/m 0,0 km/h (0 Bft) 0 min 0 min
11.01.2020 23:41 22,5 C -2,0 C 0,5 C 80 % 1 % 1032 hPa 0,0 l/m 0,0 km/h (0 Bft) 0 min 0 min
11.01.2020 23:44 22,5 C -2,0 C 0,5 C 80 % 1 % 1032 hPa 0,0 l/m 0,0 km/h (0 Bft) 0 min 0 min
11.01.2020 23:47 22,5 C -2,1 C 0,1 C 80 % 1 % 1032 hPa 0,0 l/m 0,0 km/h (0 Bft) 0 min 0 min
11.01.2020 23:50 22,5 C -2,1 C -0,3 C 80 % 1 % 1032 hPa 0,0 l/m 0,0 km/h (0 Bft) 0 min 0 min
11.01.2020 23:53 22,5 C -2,1 C -0,3 C 80 % 1 % 1032 hPa 0,0 l/m 0,0 km/h (0 Bft) 0 min 0 min
11.01.2020 23:56 22,5 C -2,1 C 0,5 C 80 % 1 % 1032 hPa 0,0 l/m 0,0 km/h (0 Bft) 0 min 0 min
11.01.2020 23:59 22,5 C -2,2 C -0,1 C 80 % 1 % 1032 hPa 0,0 l/m 0,0 km/h (0 Bft) 0 min 0 min
_ Min-Zeit 12:47 23:59 23:50 13:35 - 00:01 - 15:26 - -
Minimum _ 20,0 C -2,2 C -0,3 C 61 % - 1028 hPa - 0,0 km/h (0 Bft) - -
_ Max-Zeit 11:20 00:22 00:22 22:05 12:26 09:23 00:01 00:07 10:29 00:01
Maximum _ 23,0 C 7,3 C 5,8 C 80 % 84 % 1034 hPa 0,0 l/m 27,6 km/h
N (4 Bft)
3 min 0 min
Durchschnitt _ 22,2 C 4,1 C 3,9 C 73 % #42 min. 1032 hPa #0,0 l/m 6,2 km/h (2 Bft) #42 min. #0 min.